Date,TemperatureHighF,TemperatureAvgF,TemperatureLowF,DewpointHighF,DewpointAvgF,DewpointLowF,HumidityHigh,HumidityAvg,HumidityLow,PressureMaxIn,PressureMinIn,WindSpeedMaxMPH,WindSpeedAvgMPH,GustSpeedMaxMPH,PrecipitationSumIn
2013-3-1,54,43,32,34,32,28,93,68,43,30.09,29.98,6,1,12,0.00
2013-3-2,44,37,30,31,28,24,93,70,47,30.13,30.05,11,2,14,0.00
2013-3-3,50,39,32,28,25,20,79,59,32,30.17,30.08,8,2,13,0.00
2013-3-4,66,49,29,47,35,23,92,64,28,30.18,30.00,10,2,17,0.00
2013-3-5,74,56,38,62,50,37,93,81,56,30.09,29.86,10,2,17,0.05
2013-3-6,55,43,36,37,31,27,97,64,38,30.24,30.08,9,2,18,0.00
2013-3-7,66,47,30,35,31,28,93,58,27,30.31,30.18,5,1,8,0.00
2013-3-8,73,54,35,38,32,26,88,49,17,30.30,30.16,5,0,7,0.00
2013-3-9,73,58,44,46,40,31,75,54,32,30.23,30.08,10,2,14,0.00
2013-3-10,75,63,53,56,50,38,83,64,48,30.10,29.98,11,5,18,0.00
2013-3-11,66,55,43,62,54,42,98,94,84,29.98,29.82,11,3,17,1.36
2013-3-12,63,49,36,42,37,34,97,67,35,30.15,29.93,8,2,11,0.00
2013-3-13,64,51,37,39,32,23,92,52,24,30.30,30.16,8,2,14,0.00
2013-3-14,64,48,33,29,26,20,74,45,20,30.41,30.25,6,1,11,0.00
2013-3-15,76,56,38,46,38,28,81,54,28,30.27,30.09,9,1,13,0.00
2013-3-16,78,62,47,54,50,45,98,69,35,30.10,29.95,6,1,13,0.00
2013-3-17,72,61,51,62,58,51,99,89,68,30.03,29.91,5,1,9,0.00
2013-3-18,80,67,58,68,62,57,98,85,60,29.94,29.78,7,2,18,0.26
2013-3-19,76,61,53,58,49,34,98,70,29,30.05,29.80,14,1,15,0.68
2013-3-20,64,54,43,37,32,28,67,45,26,30.12,29.97,6,1,13,0.00
2013-3-21,64,49,36,35,30,21,86,52,20,30.04,29.90,6,1,9,0.00
2013-3-22,56,50,46,42,35,27,72,55,43,29.99,29.90,8,2,11,0.00
2013-3-23,67,58,51,61,52,43,98,81,70,29.91,29.61,12,3,13,1.53
2013-3-24,78,63,43,67,55,34,99,77,45,29.87,29.51,12,3,19,0.16
2013-3-25,58,46,35,33,26,20,73,49,26,30.18,29.88,10,3,17,0.00
2013-3-26,54,41,27,29,26,24,92,60,34,30.33,30.18,6,1,15,0.00
2013-3-27,61,45,27,33,28,24,94,56,26,30.40,30.25,3,0,10,0.00
2013-3-28,71,52,34,39,32,29,89,54,21,30.34,30.21,7,1,8,0.00
2013-3-29,76,58,38,49,39,33,94,56,23,30.32,30.16,8,1,12,0.00
2013-3-30,77,63,49,57,52,48,99,71,41,30.20,30.03,8,1,13,0.00
2013-3-31,82,67,56,64,59,55,99,79,45,30.05,29.86,6,1,12,0.05